www.pogodaiklimat.ru

Погода и климат >> Архив погоды >> Индонезия >> Таракан


ПОГОДА в Таракане

  • Прогноз погоды в Таракане
  • Монитор погоды в Таракане

АРХИВ ПОГОДЫ в Таракане

Время (UTC), дата Ветер
(напр.,м/с)
 
Видим.   Явления Облачность Т
(С)
Тd
(С)
f
(%)
Тe
(С)
Тes
(С)
Комфортность P
(гПа)
Po
(гПа)
Тmin
(С)
Tmax
(С)
R
(мм)
R24
(мм)
S
(см)
03 12.08 ЮВ 3 9000 м 9/5 450 м
[Cu hum Ac As Ci fib]
+30.8 +24.2 68 +43 +48 опасность
перегрева
1011.4 1010.6
06 12.08 Ю 2 10 км 8/4 450 м
[Cu hum Ac As Ci fib]
+32.0 +24.1 63 +44 +51 опасность
перегрева
1008.8 1008.0
09 12.08 В 3 10 км 5/3 450 м
[Cu hum Ac trans Ci fib]
+31.4 +25.2 70 +45 +47 опасность
перегрева
1007.8 1007.0
12 12.08 В 3 8000 м 5/3 450 м
[Cu hum Ac trans Ci fib]
+28.0 +26.5 92 +43 +43 опасность
перегрева
1009.4 1008.6
15 12.08 штиль 0 8000 м 5/3 450 м
[Cu hum Ac trans Ci fib]
+28.0 +24.8 83 +40 +40 очень
душно
1011.2 1010.4
18 12.08 штиль 0 8000 м 6/4 450 м
[Cu hum Ac trans Ci fib]
+27.6 +26.1 92 +42 +42 опасность
перегрева
1009.8 1008.8
21 12.08 З 2 7000 м слаб. дождь 9/5 450 м
[Cu med, cong Ac trans Ci fib]
+23.3 +22.5 95 +32 +32 очень
душно
1011.7 1010.9 10
00 13.08 штиль 0 9000 м в посл. час дождь 10/4 450 м
[Cu hum Ac As Ci fib]
+24.2 +23.2 94 +32 +34 очень
душно
1012.7 1011.9 +23.0 6
03 13.08 ЮЗ 2 8000 м {дождь} 9/3 450 м
[Cu hum Ac As Ci fib]
+28.3 +24.4 79 +40 +47 очень
душно
1012.3 1011.5 0.0
06 13.08 З 3 10 км {дождь} 6/3 450 м
[Cu hum Ac trans Ci fib]
+31.2 +25.5 72 +46 +54 опасность
перегрева
1009.6 1008.8 0.0
09 13.08 Ю 1 10 км 6/3 450 м
[Cu hum Ac trans Ci fib]
+31.6 +25.1 69 +46 +47 опасность
перегрева
1009.0 1008.1
12 13.08 В 1 8000 м 4/1 450 м
[Cu hum Ac trans Ci fib]
+27.8 +25.5 87 +41 +41 опасность
перегрева
1010.6 1009.7 +32.2
15 13.08 В 2 8000 м 4/1 450 м
[Cu hum Ac trans Ci fib]
+27.2 +25.4 90 +40 +40 очень
душно
1012.2 1011.3
18 13.08 ЮВ 2 8000 м 10/5 450 м
[Cu med, cong Ac As Ci fib]
+26.4 +25.2 93 +38 +38 очень
душно
1011.2 1010.3
21 13.08 Ю 2 8000 м 8/5 450 м
[Cu med, cong Ac As Ci fib]
+26.4 +25.2 93 +38 +38 очень
душно
1011.1 1010.3
00 14.08 ЮЗ 3 8000 м 8/5 450 м
[Cu med, cong Ac As Ci fib]
+27.8 +25.2 86 +40 +42 очень
душно
1012.6 1011.8 +24.0 0.0
03 14.08 Ю 2 9000 м 8/5 450 м
[Cu med, cong Ac As Ci fib]
+30.0 +25.4 76 +44 +51 опасность
перегрева
1012.0 1011.2
06 14.08 Ю 3 9000 м 8/4 450 м
[Cu med, cong Ac As Ci fib]
+32.8 +24.3 61 +45 +51 опасность
перегрева
1009.3 1008.4
09 14.08 В 3 9000 м 6/3 450 м
[Cu hum Ac trans Ci fib]
+30.4 +26.3 79 +46 +47 опасность
перегрева
1008.3 1007.5
12 14.08 В 3 8000 м 5/3 450 м
[Cu hum Ac trans Ci fib]
+28.0 +25.7 87 +41 +41 опасность
перегрева
1010.4 1009.5 +33.0
15 14.08 В 2 8000 м 5/1 450 м
[Cu hum Ac trans Ci fib]
+27.6 +26.1 92 +42 +42 опасность
перегрева
1012.2 1011.4
18 14.08 штиль 0 8000 м 8/4 450 м
[Cu med, cong Ac trans Ci fib]
+26.8 +25.9 95 +40 +40 очень
душно
1011.5 1010.7
21 14.08 штиль 0 8000 м 8/4 450 м
[Cu med, cong Ac As Ci fib]
+25.4 +23.9 91 +35 +35 очень
душно
1011.8 1010.1
00 15.08 ЮВ 2 9000 м 8/4 450 м
[Cu med, cong Ac As Ci fib]
+28.0 +25.7 87 +41 +44 опасность
перегрева
1012.7 1011.9 +24.0
03 15.08 ЮЗ 2 10 км 4/3 450 м
[Cu hum Ac trans Ci fib]
+31.4 +26.0 73 +47 +60 опасность
перегрева
1012.5 1011.6
06 15.08 З 2 10 км 4/3 450 м
[Cu med, cong Ac trans Ci fib]
+32.8 +26.1 68 +49 +61 опасность
перегрева
1009.9 1009.1
09 15.08 В 3 10 км 4/1 450 м
[Cu hum Ac trans Ci fib]
+30.6 +24.3 69 +43 +44 опасность
перегрева
1008.5 1007.7
12 15.08 В 2 8000 м 4/3 450 м
[Cu hum Ac trans Ci fib]
+28.2 +24.4 80 +40 +40 очень
душно
1010.1 1009.2 +33.8
15 15.08 штиль 0 8000 м 8/5 450 м
[Cu hum Ac trans Ci fib]
+28.0 +25.9 88 +42 +42 опасность
перегрева
1012.1 1011.2
18 15.08 В 4 8000 м 6/4 450 м
[Cu hum Ac trans Ci fib]
+28.0 +25.7 87 +41 +41 опасность
перегрева
1010.9 1010.1
21 15.08 В 3 8000 м 6/4 450 м
[Cu hum Ac trans Ci fib]
+27.8 +25.7 88 +41 +41 опасность
перегрева
1011.5 1010.6
00 16.08 З 4 9000 м {дождь} 6/4 450 м
[Cu hum Ac As Ci fib]
+26.8 +22.9 79 +36 +37 очень
душно
1013.1 1012.2 +24.8 0.0
03 16.08 СЗ 4 10 км 6/4 450 м
[Cu hum Ac As Ci fib]
+28.8 +23.8 74 +39 +47 очень
душно
1012.6 1011.8
06 16.08 ЮЗ 2 10 км 6/4 450 м
[Cu hum Ac trans Ci fib]
+32.8 +25.5 66 +48 +56 опасность
перегрева
1010.0 1009.1
09 16.08 С 1 10 км 4/1 450 м
[Cu hum Ac trans Ci fib]
+31.4 +25.8 72 +46 +48 опасность
перегрева
1008.7 1007.9
12 16.08 штиль 0 8000 м 4/1 450 м
[Cu hum Ac trans Ci fib]
+27.8 +24.6 83 +39 +39 очень
душно
1010.5 1009.6 +33.6
15 16.08 штиль 0 8000 м 4/1 450 м
[Cu hum Ac trans Ci fib]
+27.0 +24.6 87 +38 +38 очень
душно
1012.2 1011.4
18 16.08 штиль 0 8000 м 5/3 450 м
[Cu hum Ac trans Ci fib]
+26.2 +25.8 98 +39 +39 очень
душно
1011.8 1010.9
21 16.08 штиль 0 8000 м 8/5 450 м
[Cu hum Ac trans Ci fib]
+25.4 +25.0 98 +36 +36 очень
душно
1011.8 1011.0
00 17.08 СЗ 2 10 км слаб. дождь 9/6 450 м
[Cu med, cong Ac As Ci fib]
+27.2 +24.2 84 +38 +39 очень
душно
1012.8 1012.0 +26.6 0.0
03 17.08 ЮВ 2 9000 м 8/5 450 м
[Cu med, cong Ac trans Ci fib]
+30.3 +25.3 75 +44 +52 опасность
перегрева
1012.7 1011.9
06 17.08 В 3 8000 м {дождь} 6/4 450 м
[Cu hum Ac trans Ci fib]
+32.0 +24.6 65 +45 +52 опасность
перегрева
1010.7 1009.8 0.0
09 17.08 В 3 10 км 6/4 450 м
[Cu hum Ac trans Ci fib]
+30.0 +24.8 74 +43 +44 опасность
перегрева
1009.1 1008.3
12 17.08 В 3 8000 м 5/3 450 м
[Cu hum Ac trans Ci fib]
+28.0 +25.1 84 +40 +40 очень
душно
1011.0 1010.2
15 17.08 штиль 0 8000 м 4/1 450 м
[Cu hum Ac trans Ci fib]
+27.7 +25.6 88 +41 +41 опасность
перегрева
1012.9 1012.0
18 17.08 штиль 0 8000 м зарница 5/4 450 м
[Cb cap Ac trans Ci fib]
+26.4 +25.2 93 +38 +38 очень
душно
1011.8 1011.0
21 17.08 ЮВ 2 7000 м зарница 6/5 450 м
[Cu med, cong Ac trans Ci fib]
+25.0 +23.5 91 +34 +34 очень
душно
1012.0 1011.2 1
00 18.08 СЗ 2 10 км {дождь} 6/4 450 м
[Cu hum Ac As Ci fib]
+26.2 +24.4 90 +37 +39 очень
душно
1013.6 1012.8 +24.6 1
03 18.08 Ю 1 9000 м 8/4 450 м
[Cu hum Ac As Ci fib]
+29.8 +25.5 78 +44 +53 опасность
перегрева
1013.5 1012.6
06 18.08 З 1 9000 м 4/3 450 м
[Cu hum Ac trans Ci fib]
+32.8 +25.2 64 +47 +60 опасность
перегрева
1010.1 1009.2
09 18.08 В 2 10 км 4/1 450 м
[Cu hum Ac trans Ci fib]
+31.8 +25.0 67 +45 +47 опасность
перегрева
1008.8 1008.0
12 18.08 СВ 2 8000 м 4/3 450 м
[Cu hum Ac trans Ci fib]
+28.2 +24.4 80 +40 +40 очень
душно
1010.5 1009.7 +33.2
15 18.08 штиль 0 8000 м 4/3 450 м
[Cu hum Ac trans Ci fib]
+26.2 +23.5 85 +36 +36 очень
душно
1012.2 1011.4
18 18.08 штиль 0 8000 м 4/3 450 м
[Cu hum Ac trans Ci fib]
+25.4 +23.2 88 +34 +34 очень
душно
1011.0 1010.1
21 18.08 штиль 0 8000 м 6/4 450 м
[Cu hum Ac trans Ci fib]
+24.8 +23.2 91 +33 +33 очень
душно
1011.0 1010.2

 

Местоположение метеостанции Таракан (Индонезия): широта 3.33 долгота 117.56 высота над уровнем моря 6 м.

В архиве по умолчанию представлена погода в Таракане за последнюю неделю. Архивные данные за месяц целиком и за предыдущие месяцы, начиная с января 2011 года, Вы можете получить, выбрав интересующий диапазон дат из раскрывающегося списка и нажав кнопку "Ввод!".


*Определитесь, кто Вы:
робот инопланетянин человек

Внимание! Время в таблицах - всемирное. Для получения местного времени необходимо прибавить поправку, которая равна 8 ч.

Смотрите также архив погоды в соседних городах и на ближайших метеорологических станциях:

Погода в Танджунгселоре (Индонезия) (59 км)
Погода в Тавау (Малайзия) (110 км)
Погода в Танджунгредепе (Индонезия) (135 км)
Погода в Лонгбаване (Индонезия) (213 км)
Погода в Сандакане (Малайзия) (291 км)
Погода в Кота-Кинабалу (Малайзия) (334 км)
Погода в Лабуане (Малайзия) (337 км)
Погода в Брунее (Бруней) (342 км)
Погода в Мири (Малайзия) (413 км)
Погода в Самаринде (Индонезия) (442 км)

Пояснения к столбцам:

Ветер - указаны скорость ветра в м/с - средняя за 10 мин, порывы в срок и между сроками (в фигурных скобках) и направление, откуда дует ветер: С - северный, СВ - северо-восточный, В - восточный, ЮВ - юго-восточный, Ю - южный, ЮЗ - юго-западный, З - западный, СЗ - северо-западный.
Видимость - горизонтальная дальность видимости в метрах или километрах. При видимости от 1 до 10 км при отсутствии осадков обычно наблюдается дымка, при ухудшении видимости до 1 км и менее - туман. В сухую погоду видимость может ухудшаться дымом, пылью или мглою.
Явления - указаны атмосферные явления, наблюдавшиеся в срок или в последний час перед сроком; фигурными скобками обозначены явления, наблюдавшиеся между сроками (за 1-3 часа до срока); квадратными скобками обозначены град или гололедные отложения с указанием их диаметра в мм.
Облачность - указаны через наклонную черту общая и нижняя облачность в баллах и высота нижней границы облаков в метрах; квадратными скобками обозначены формы облаков: Ci - перистые, Cs - перисто-слоистые, Cc - перисто-кучевые, Ac - высококучевые, As - высокослоистые, Sc - слоисто-кучевые, Ns - слоисто-дождевые, Cu - кучевые, Cb - кучево-дождевые. Подробнее классификацию облаков см. в Атласе облаков (PDF).
T - Температура воздуха - температура, измеренная на высоте 2 м над землей.
Td - Температура точки росы - температура, при понижении до которой содержащийся в воздухе водяной пар достигнет насыщения.
f - Относительная влажность воздуха - влажноcть воздуха, измеренная на высоте 2 м над землей.
Te - Эффективная температура - температура, которую ощущает одетый по сезону человек в тени. Характеристика душности погоды. При расчете учитывается влияние влажности воздуха и скорости ветра на теплоощущения человека.
Tes - Эффективная температура на солнце - температура, которую ощущает человек, с поправкой на солнечный нагрев. Характеристика знойности погоды. Зависит от высоты солнца над горизонтом, облачности и скорости ветра. Ночью, в пасмурную погоду, а также при ветре 12 м/с и более поправка равна нулю.
P - Атмосферное давление - приведенное к уровню моря атмосферное давление.
Po - Атмосферное давление - измеренное на уровне метеостанции атмосферное давление.
Tmin - Минимальная температура - минимум температуры воздуха на высоте 2 м над землей.
Tmax - Максимальная температура - максимум температуры воздуха на высоте 2 м над землей.
R - Количество осадков - Количество выпавших осадков за период времени, мм. При наведении курсора мыши на число - период времени, за который выпало указанное количество осадков.
R24 - Количество осадков - Количество выпавших осадков за 24 часа, мм.
S - Снежный покров - Высота снежного покрова, см. При наведении курсора мыши на число - состояние снежного покрова и степень покрытия местности в баллах.